Retour au catalogue

STARLINK-32253

ActifCommunicationsVLEO
NORAD 60733·PAYLOAD·🇺🇸 United States

Lancé Aug 28, 2024 depuis Cape Canaveral Space Force Station

Loading…

Prochains Passages (prochaines 24 heures)

TLE

FraisSource: CelesTrak SupGP

Époque: Sep 15, 2026, 02:56 UTC

1 60733C 24152P   26258.12270833  .00010843  00000+0  32036-3 0  2582
2 60733  53.1564 106.5483 0001141  84.1078 207.6516 15.34384796    15

Suivez STARLINK-32253 en temps réel avec AllMySat

Download on the App Store